Location: Newark
(6.1731°S, 35.7419°E)
Time: 16:29:36
(UTC+00:00)

Transit 2A - All Passes

Search period start: 21 February 2020 00:00
Search period end: 02 March 2020 00:00
Orbit: 600 x 959 km, 66.7° (Epoch: 21 February)

Date Brightness Start Highest point End Pass type
(mag) Time Alt. Az. Time Alt. Az. Time Alt. Az.
21 Feb - 09:11:50 10° SSW 09:16:42 79° ESE 09:21:09 10° NNE daylight
21 Feb - 20:08:42 10° NE 20:10:35 11° ENE 20:12:30 10° E night (unlit)
21 Feb - 21:47:28 10° NNW 21:53:21 59° WSW 21:59:35 10° S night (unlit)
22 Feb - 08:37:58 10° S 08:42:35 43° ESE 08:46:50 10° NE daylight
22 Feb - 21:13:16 10° NNW 21:19:15 88° ENE 21:25:36 10° SSE night (unlit)
23 Feb - 08:04:29 10° SSE 08:08:25 24° ESE 08:12:05 10° ENE daylight
23 Feb - 09:48:34 10° WSW 09:51:12 15° WNW 09:53:46 10° NW daylight
23 Feb - 20:39:20 10° N 20:45:10 56° ENE 20:51:20 10° SSE night (unlit)
23 Feb - 22:25:35 10° W 22:28:26 13° WSW 22:31:21 10° SW night (unlit)
24 Feb - 07:31:43 10° SE 07:34:12 14° ESE 07:36:36 10° E daylight
24 Feb - 09:13:14 10° SW 09:17:12 27° WNW 09:20:56 10° NNW daylight
24 Feb - 20:05:46 10° N 20:11:07 35° ENE 20:16:45 10° SE night (unlit)
24 Feb - 21:49:39 10° WNW 21:54:12 22° WSW 21:58:56 10° SSW night (unlit)
25 Feb - 08:38:35 10° SW 08:43:11 48° WNW 08:47:26 10° N daylight
25 Feb - 19:32:37 10° NNE 19:37:05 22° ENE 19:41:45 10° ESE night (unlit)
25 Feb - 21:14:36 10° NW 21:20:01 34° WSW 21:25:42 10° S night (unlit)
26 Feb - 08:04:19 10° SSW 08:09:08 90° ESE 08:13:33 10° NNE daylight
26 Feb - 19:00:22 10° NE 19:03:04 13° ENE 19:05:48 10° E night (unlit)
26 Feb - 20:40:00 10° NW 20:45:52 54° WSW 20:52:04 10° S night (unlit)
27 Feb - 07:30:23 10° S 07:35:01 48° ESE 07:39:18 10° NE daylight
27 Feb - 20:05:44 10° NNW 20:11:45 85° WSW 20:18:08 10° SSE night (unlit)
28 Feb - 06:56:50 10° S 07:00:52 27° ESE 07:04:39 10° NE daylight
28 Feb - 08:41:31 10° W 08:43:37 13° WNW 08:45:40 10° NW daylight
28 Feb - 19:31:44 10° N 19:37:40 62° ENE 19:43:55 10° SSE night (unlit)
28 Feb - 21:18:42 10° W 21:20:59 12° WSW 21:23:17 10° SW night (unlit)
29 Feb - 06:23:51 10° SSE 06:26:40 15° ESE 06:29:22 10° ENE daylight
29 Feb - 08:05:54 10° SW 08:09:37 23° WNW 08:13:09 10° NNW daylight
29 Feb - 18:58:05 10° N 19:03:37 38° ENE 19:09:25 10° SE night (unlit)
29 Feb - 20:42:24 10° WNW 20:46:44 20° WSW 20:51:12 10° SSW night (unlit)
01 Mar - 07:31:08 10° SW 07:35:36 42° WNW 07:39:45 10° N daylight
01 Mar - 18:24:49 10° NNE 18:29:35 24° ENE 18:34:31 10° SE night (unlit)
01 Mar - 20:07:14 10° NW 20:12:33 31° WSW 20:18:04 10° S night (unlit)
